| time (UTC) | temp F | wind direction | speed knots | gust knots | rain 1hr in | rain 24hr in | rain mn in | humidity % | barometer mb |
| 20260831024617 | 59 | 227 | 5.2 | 10.4 | 0.00 | 0.32 | 0.00 | 84 | 1005.7 |
| 20260831023056 | 59 | 225 | 4.3 | 13.0 | 0.00 | 0.32 | 0.00 | 82 | 1005.7 |
| 20260831021555 | 59 | 217 | 7.0 | 12.2 | 0.00 | 0.32 | 0.00 | 82 | 1005.6 |
| 20260831020055 | 59 | 219 | 5.2 | 13.9 | 0.00 | 0.32 | 0.00 | 82 | 1005.6 |
| 20260831014553 | 59 | 202 | 9.6 | 16.5 | 0.00 | 0.32 | 0.00 | 82 | 1005.5 |
| 20260831013107 | 59 | 240 | 4.3 | 14.8 | 0.00 | 0.32 | 0.00 | 83 | 1005.6 |
| 20260831011555 | 59 | 207 | 7.8 | 17.4 | 0.00 | 0.32 | 0.00 | 83 | 1005.7 |
| 20260831010116 | 59 | 216 | 7.0 | 14.8 | 0.00 | 0.32 | 0.00 | 85 | 1005.8 |
| 20260831004552 | 59 | 231 | 4.3 | 12.2 | 0.00 | 0.32 | 0.00 | 86 | 1005.7 |
| 20260831003047 | 59 | 264 | 7.0 | 12.2 | 0.00 | 0.32 | 0.00 | 86 | 1005.8 |
| 20260831001546 | 59 | 4 | 5.2 | 8.7 | 0.00 | 0.32 | 0.00 | 86 | 1005.8 |
| 20260831000059 | 59 | 200 | 5.2 | 12.2 | 0.00 | 0.32 | 0.00 | 86 | 1005.8 |
| 20260830234544 | 59 | 224 | 7.8 | 14.8 | 0.00 | 0.32 | 0.00 | 86 | 1005.7 |
| 20260830233042 | 59 | 247 | 6.1 | 12.2 | 0.00 | 0.32 | 0.00 | 87 | 1005.8 |
| 20260830231543 | 59 | 215 | 6.1 | 12.2 | 0.00 | 0.32 | 0.00 | 87 | 1005.6 |
| 20260830230049 | 59 | 244 | 7.8 | 15.6 | 0.00 | 0.32 | 0.00 | 87 | 1005.6 |
| 20260830224538 | 59 | 231 | 7.0 | 12.2 | 0.00 | 0.32 | 0.00 | 87 | 1005.5 |
| 20260830223047 | 59 | 258 | 6.1 | 13.0 | 0.00 | 0.32 | 0.00 | 88 | 1005.5 |
| 20260830221537 | 59 | 226 | 6.1 | 14.8 | 0.00 | 0.32 | 0.00 | 88 | 1005.4 |
| 20260830220033 | 59 | 232 | 7.0 | 18.2 | 0.00 | 0.32 | 0.00 | 88 | 1005.5 |
| 20260830214533 | 59 | 245 | 9.6 | 16.5 | 0.00 | 0.32 | 0.32 | 89 | 1005.4 |
| 20260830213035 | 59 | 231 | 7.0 | 13.0 | 0.00 | 0.32 | 0.32 | 89 | 1005.4 |
| 20260830211527 | 59 | 255 | 6.1 | 10.4 | 0.00 | 0.32 | 0.32 | 90 | 1005.2 |
| 20260830210029 | 59 | 271 | 4.3 | 10.4 | 0.00 | 0.32 | 0.32 | 90 | 1005.1 |
| 20260830204525 | 59 | 238 | 7.0 | 13.0 | 0.00 | 0.32 | 0.32 | 91 | 1005.1 |
| 20260830203025 | 59 | 238 | 4.3 | 12.2 | 0.00 | 0.32 | 0.32 | 91 | 1005.0 |
| 20260830201522 | 59 | 225 | 3.5 | 11.3 | 0.00 | 0.32 | 0.32 | 91 | 1005.0 |
| 20260830200020 | 59 | 217 | 7.8 | 13.0 | 0.00 | 0.32 | 0.32 | 92 | 1005.0 |
| 20260830194521 | 59 | 254 | 6.1 | 12.2 | 0.00 | 0.32 | 0.32 | 93 | 1004.8 |
| 20260830193016 | 59 | 300 | 5.2 | 12.2 | 0.00 | 0.32 | 0.32 | 94 | 1004.6 |
| 20260830191513 | 59 | 228 | 5.2 | 9.6 | 0.00 | 0.32 | 0.32 | 94 | 1004.5 |
| 20260830190012 | 59 | 243 | 6.1 | 13.0 | 0.00 | 0.32 | 0.32 | 94 | 1004.4 |
| 20260830184508 | 60 | 242 | 4.3 | 13.0 | 0.00 | 0.32 | 0.32 | 95 | 1004.3 |
| 20260830183007 | 60 | 249 | 6.1 | 13.0 | 0.00 | 0.32 | 0.32 | 95 | 1004.1 |
| 20260830181505 | 60 | 246 | 4.3 | 11.3 | 0.00 | 0.32 | 0.32 | 95 | 1003.9 |
| 20260830180005 | 60 | 228 | 2.6 | 7.8 | 0.00 | 0.32 | 0.32 | 95 | 1003.6 |
| 20260830174505 | 60 | 246 | 1.7 | 10.4 | 0.00 | 0.32 | 0.32 | 95 | 1003.4 |
| 20260830173004 | 60 | 261 | 1.7 | 6.1 | 0.00 | 0.32 | 0.32 | 95 | 1003.4 |
| 20260830171503 | 60 | 246 | 1.7 | 5.2 | 0.01 | 0.32 | 0.32 | 95 | 1003.2 |
| 20260830170004 | 60 | 250 | 1.7 | 4.3 | 0.02 | 0.32 | 0.32 | 95 | 1003.2 |
| 20260830164502 | 60 | 252 | 0.9 | 6.1 | 0.05 | 0.32 | 0.32 | 95 | 1002.8 |
| 20260830163002 | 60 | 254 | 0.0 | 7.8 | 0.06 | 0.32 | 0.32 | 95 | 1002.6 |
| 20260830161522 | 60 | 288 | 0.9 | 6.1 | 0.06 | 0.31 | 0.31 | 95 | 1002.4 |
| 20260830160129 | 60 | 251 | 0.9 | 4.3 | 0.08 | 0.30 | 0.30 | 95 | 1002.3 |
| 20260830154557 | 60 | 332 | 0.9 | 6.1 | 0.09 | 0.28 | 0.28 | 94 | 1002.1 |
| 20260830153055 | 61 | 281 | 1.7 | 7.0 | 0.12 | 0.27 | 0.27 | 94 | 1002.0 |
| 20260830151607 | 62 | 226 | 0.0 | 1.7 | 0.11 | 0.25 | 0.25 | 94 | 1001.8 |
| 20260830144554 | 62 | 335 | 0.0 | 2.6 | 0.07 | 0.18 | 0.18 | 94 | 1001.7 |
| 20260830143057 | 63 | 359 | 0.9 | 2.6 | 0.04 | 0.15 | 0.15 | 94 | 1001.6 |
| 20260830141555 | 63 | 351 | 0.0 | 1.7 | 0.04 | 0.14 | 0.14 | 94 | 1001.5 |
| 20260830140053 | 63 | 42 | 0.0 | 2.6 | 0.03 | 0.13 | 0.13 | 93 | 1001.5 |
| 20260830134553 | 63 | 9 | 0.0 | 2.6 | 0.02 | 0.11 | 0.11 | 93 | 1001.5 |
| 20260830133059 | 63 | 43 | 0.9 | 2.6 | 0.02 | 0.11 | 0.11 | 93 | 1001.5 |
| 20260830131555 | 63 | 13 | 0.0 | 2.6 | 0.02 | 0.10 | 0.10 | 93 | 1001.4 |
| 20260830130101 | 63 | 26 | 0.0 | 2.6 | 0.02 | 0.09 | 0.09 | 93 | 1001.4 |
| 20260830124551 | 63 | 82 | 0.9 | 2.6 | 0.02 | 0.09 | 0.09 | 92 | 1001.4 |
| 20260830123056 | 63 | 111 | 1.7 | 5.2 | 0.01 | 0.09 | 0.09 | 92 | 1001.5 |
| 20260830121552 | 63 | 125 | 0.9 | 6.1 | 0.00 | 0.08 | 0.08 | 91 | 1001.6 |
| 20260830120048 | 63 | 103 | 0.9 | 5.2 | 0.00 | 0.08 | 0.08 | 90 | 1001.6 |
| 20260830114548 | 63 | 97 | 2.6 | 6.1 | 0.00 | 0.08 | 0.08 | 90 | 1001.7 |
| 20260830113048 | 63 | 88 | 2.6 | 7.0 | 0.00 | 0.08 | 0.08 | 90 | 1001.6 |
| 20260830111546 | 63 | 136 | 2.6 | 8.7 | 0.00 | 0.08 | 0.08 | 90 | 1001.6 |
| 20260830110056 | 62 | 104 | 1.7 | 7.0 | 0.00 | 0.08 | 0.08 | 91 | 1001.9 |
| 20260830104545 | 62 | 82 | 1.7 | 6.1 | 0.00 | 0.11 | 0.08 | 91 | 1002.0 |
| 20260830103043 | 62 | 107 | 0.9 | 3.5 | 0.00 | 0.11 | 0.08 | 91 | 1002.1 |
| 20260830101541 | 61 | 119 | 0.9 | 2.6 | 0.01 | 0.11 | 0.08 | 91 | 1002.2 |
| 20260830100050 | 61 | 203 | 0.9 | 5.2 | 0.01 | 0.11 | 0.08 | 92 | 1002.3 |
| 20260830094540 | 62 | 174 | 2.6 | 10.4 | 0.01 | 0.12 | 0.08 | 93 | 1002.3 |
| 20260830093037 | 61 | 90 | 1.7 | 7.8 | 0.01 | 0.12 | 0.08 | 93 | 1002.4 |
| 20260830091539 | 62 | 190 | 2.6 | 6.1 | 0.01 | 0.11 | 0.07 | 93 | 1002.5 |
| 20260830090035 | 61 | 150 | 3.5 | 11.3 | 0.03 | 0.11 | 0.07 | 93 | 1002.6 |
| 20260830084610 | 61 | 185 | 3.5 | 11.3 | 0.03 | 0.11 | 0.07 | 93 | 1002.6 |
| 20260830083036 | 62 | 174 | 4.3 | 10.4 | 0.03 | 0.11 | 0.07 | 93 | 1002.7 |
| 20260830081531 | 62 | 175 | 3.5 | 8.7 | 0.02 | 0.10 | 0.06 | 93 | 1002.5 |
| 20260830080031 | 62 | 190 | 3.5 | 11.3 | 0.02 | 0.08 | 0.04 | 92 | 1002.6 |
| 20260830074534 | 62 | 175 | 5.2 | 12.2 | 0.04 | 0.08 | 0.04 | 92 | 1002.6 |
| 20260830073029 | 63 | 183 | 5.2 | 12.2 | 0.04 | 0.08 | 0.04 | 93 | 1002.7 |
| 20260830071527 | 62 | 179 | 6.1 | 12.2 | 0.04 | 0.08 | 0.04 | 93 | 1002.7 |
| 20260830070025 | 63 | 163 | 5.2 | 9.6 | 0.02 | 0.06 | 0.02 | 91 | 1002.7 |
| 20260830064525 | 63 | 184 | 5.2 | 7.0 | 0.00 | 0.04 | 0.00 | 90 | 1002.6 |
| 20260830063024 | 63 | 186 | 5.2 | 10.4 | 0.00 | 0.04 | 0.00 | 90 | 1002.6 |
| 20260830061530 | 63 | 182 | 3.5 | 13.0 | 0.00 | 0.04 | 0.00 | 90 | 1002.6 |
| 20260830060020 | 63 | 192 | 4.3 | 10.4 | 0.00 | 0.04 | 0.00 | 90 | 1002.7 |
| 20260830054519 | 63 | 210 | 4.3 | 10.4 | 0.00 | 0.04 | 0.00 | 90 | 1002.8 |
| 20260830053016 | 62 | 204 | 4.3 | 7.8 | 0.00 | 0.04 | 0.00 | 90 | 1002.8 |
| 20260830051514 | 62 | 177 | 3.5 | 8.7 | 0.00 | 0.04 | 0.00 | 89 | 1002.9 |
| 20260830050012 | 62 | 238 | 4.3 | 8.7 | 0.00 | 0.04 | 0.00 | 89 | 1002.9 |
| 20260830044511 | 62 | 192 | 3.5 | 9.6 | 0.00 | 0.04 | 0.00 | 89 | 1002.9 |
| 20260830043010 | 62 | 213 | 5.2 | 9.6 | 0.00 | 0.04 | 0.00 | 89 | 1002.9 |
| 20260830041508 | 62 | 182 | 4.3 | 9.6 | 0.00 | 0.04 | 0.00 | 89 | 1003.0 |
| 20260830040008 | 62 | 175 | 6.1 | 12.2 | 0.00 | 0.04 | 0.00 | 89 | 1003.2 |
| 20260830034507 | 62 | 221 | 5.2 | 10.4 | 0.00 | 0.04 | 0.00 | 89 | 1003.2 |
| 20260830033007 | 61 | 199 | 6.1 | 12.2 | 0.00 | 0.04 | 0.00 | 89 | 1003.2 |
| 20260830031507 | 61 | 216 | 4.3 | 10.4 | 0.00 | 0.04 | 0.00 | 89 | 1003.4 |